STARLINK-11276, 61244

Orbit data source: Space-Track

STARLINK-11276, 61244 is a payload satellite owned by SpaceX/Seattle (US) in LEO that was launched on Wed, 25 Sep 2024 UTC via an FALCON 9 launch vehicle from the Air Force Western Test Range (AFWTR). Payloads include a variety of satellites, spacecraft, and rockets equipped with specific instruments for various scientific and technological missions. These include communications satellites like Starlink; space stations such as the ISS; scientific satellites like the Hubble; Earth observation satellites from companies like Planet Labs, Umbra, and HawkEye 360; GPS; miniature CubeSats for education and research; and military/defense satellites.

Loading next visibility...
STARLINK-11276 details
Identifier
61244, 2024-175B
Orbit
LEO
Last TLE update1 day ago
Origin
Flag of USSpaceX/Seattle (US)
ManufacturerSpaceX/Seattle
MissionOperational spacecraft
Bus & MotorSTARLINK V2M, Unknown motor
Mass730 kg wet, ~700 kg dry
Launch date (UTC)
2024-09-25 (3 months ago)
Launch vehicle
FALCON 9
Launch site
Air Force Western Test Range (AFWTR)
Object type
Payload
Rocket body
Debris
Shape & HBRUnknown
Radar Cross SectionLarge (>1 m²)

Expand to show TLE details & history

TLE from 1 day ago
0 STARLINK-11276
1 61244U 24175B   24355.63889435 -.00001705  00000-0 -92363-5 0  9994
2 61244  53.1582  85.2516 0000556 115.4367 244.6709 15.69693773 13623
Epoch: 2024-12-20T15:20Z
Definitive object data (Epoch: 2024-12-20T15:20:00.471Z)
Latitude
Longitude125.54812°
Altitude360.848 km
Speed7.694 km/s
True Right ascension05h 41m 00s
True Declination0° 00' 00"
Sunlit
Object was in full shadow at TLE epoch
Visualization TLE readout
Latitude-18.83551°
Longitude105.8224°
Altitude365.269 km
Speed7.69 km/s
Apparent Right ascension03h 39m 17s
Apparent Declination-29° 29' 10"
Sunlit
Object is in full shadow
Visualization observer readout
Local Sidereal Time14:43:16
Azimuth307.971° NW
Elevation-74.499°
Doppler factor1
Orbital elements
Apogee altitude360.409 km
Perigee altitude359.66 km
Semi-major axis6,738.171 km
Eccentricity0.0000556
Inclination53.1582°
RAAN85.2516°
Arg. of periapsis115.4367°
True anomaly244.66514°
Mean anomaly244.6709°
Eccentric anomaly244.66802°
Mean motion3.92401 °/min
BSTAR-0.0000092363
Orbital period91.74 mins
Loading maneuver chart data...
Loading historical data...
Loading historical data...
Loading historical data...
Loading historical data...
Loading historical data...
Loading historical data...
Loading historical data...

STARLINK-11276 Visibility forecast

Observer location: undefined°, undefined

Span
Click to sort rows by Start time (UTC) header in descending order
Start Az.
Max El. time (UTC)
Max El. Az.
Max El.
End time (UTC)
End Az.
5 mins2024-12-21 16:17:56.138Z290.611° WNW2024-12-21 16:20:56.138Z209.02° SW26.315°2024-12-21 16:22:56.138Z164.224° S
4 mins2024-12-22 08:47:56.138Z245.658° WSW2024-12-22 08:49:56.138Z8.101° NNE38.94°2024-12-22 08:51:56.138Z42.779° NE
4 mins2024-12-22 15:12:56.138Z317.807° NNW2024-12-22 15:13:56.138Z341.652° N42.19°2024-12-22 15:16:56.138Z125.626° SE
|